Ketchikan, AK

4:03 PM AKDT on September 21, 2018 (GMT -0800)
Ketchikan International

Weather History for PAKT - June, 2018

Change the Weather History Date:

Sunday, June 24, 2018

  Actual Average Record
Temperature  
Mean Temperature 52 °F -  
Max Temperature 59 °F 62 °F 77 °F (1983)
Min Temperature 46 °F 48 °F 37 °F (1965)
Degree Days  
Heating Degree Days 12    
Growing Degree Days 2 (Base 50)    
Moisture  
Dew Point 50 °F    
Average Humidity 88    
Maximum Humidity 94    
Minimum Humidity 72    
Precipitation  
Precipitation 0.41 in - - ()
Sea Level Pressure  
Sea Level Pressure 29.95 in    
Wind  
Wind Speed 7 mph (SSE)    
Max Wind Speed 17 mph    
Max Gust Speed 23 mph    
Visibility 7 miles    
Events Rain    
Averages and records for this station are not official NWS values.
T = Trace of Precipitation, MM = Missing Value Source: NWS Daily Summary

Daily Weather History Graph

Daily Weather History Graph

Search for Another Location

Airport or City:

Astronomy

Jun. 24, 2018 Rise Set
Actual Time 4:05 AM AKDT 9:32 PM AKDT
Civil Twilight 3:06 AM AKDT 10:32 PM AKDT
Nautical Twilight 1:21 AM AKDT 12:17 AM AKDT
Astronomical Twilight Sun does not set Sun does not set
Moon 5:57 PM AKDT (6/24) 2:36 AM AKDT (6/24)
Length of Visible Light 19h 26m
Length of Day
17h 26m
Waxing Gibbous, 90% of the Moon is Illuminated
Jun 24
Waxing Gibbous
Jun 27
Full
Jul 5
Last Quarter
Jul 12
New
Jul 19
First Quarter

Hourly Weather History & Observations

Time (AKDT) Temp. Dew Point Humidity Pressure Visibility Wind Dir Wind Speed Gust Speed Precip Events Conditions
12:05 AM 53.1 °F 50.0 °F 89% 30.02 in 10.0 mi SSE 8.1 mph - N/A   Overcast
12:15 AM 53.1 °F 50.0 °F 89% 30.02 in 10.0 mi SSE 8.1 mph - N/A   Overcast
12:53 AM 53.1 °F 50.0 °F 89% 30.01 in 10.0 mi SSE 5.8 mph - N/A   Overcast
1:53 AM 53.1 °F 48.9 °F 86% 29.99 in 10.0 mi South 4.6 mph - N/A   Overcast
2:51 AM 53.6 °F 50.0 °F 88% 29.98 in 2.5 mi SSE 5.8 mph - 0.02 in Rain Light Rain
2:53 AM 53.1 °F 50.0 °F 89% 29.98 in 2.5 mi SSE 5.8 mph - 0.02 in Rain Light Rain
2:59 AM 52.0 °F 50.0 °F 93% 29.98 in 3.0 mi South 4.6 mph - 0.00 in Rain Light Rain
3:08 AM 52.0 °F 50.0 °F 93% 29.97 in 2.0 mi South 4.6 mph - 0.02 in Rain Light Rain
3:15 AM 52.0 °F 50.0 °F 93% 29.97 in 2.0 mi Calm Calm - 0.02 in Rain Light Rain
3:40 AM 52.0 °F 50.0 °F 93% 29.97 in 2.0 mi SSE 3.5 mph - 0.07 in Rain Rain
3:53 AM 52.0 °F 50.0 °F 93% 29.97 in 2.0 mi Calm Calm - 0.10 in Rain Light Rain
4:06 AM 52.0 °F 50.0 °F 93% 29.96 in 1.8 mi Variable 3.5 mph - 0.02 in Rain Light Rain
4:10 AM 52.0 °F 50.0 °F 93% 29.96 in 2.0 mi SSE 3.5 mph - 0.02 in Rain Light Rain
4:37 AM 53.1 °F 51.1 °F 93% 29.95 in 4.0 mi SE 6.9 mph - 0.05 in Rain Light Rain
4:53 AM 53.1 °F 51.1 °F 93% 29.96 in 3.0 mi SE 5.8 mph - 0.06 in Rain Light Rain
5:27 AM 53.1 °F 51.1 °F 93% 29.95 in 10.0 mi SSE 8.1 mph - 0.01 in   Overcast
5:53 AM 54.0 °F 51.1 °F 90% 29.95 in 7.0 mi SSE 10.4 mph - 0.01 in Rain Light Rain
6:07 AM 53.6 °F 51.8 °F 94% 29.94 in 10.0 mi SSE 10.4 mph - N/A Rain Light Rain
6:53 AM 53.6 °F 51.8 °F 94% 29.95 in 5.0 mi SSE 10.4 mph - N/A Rain Light Rain
7:53 AM 53.6 °F 51.8 °F 94% 29.95 in 5.0 mi SSE 9.2 mph - N/A Rain Rain
8:53 AM 53.6 °F 51.8 °F 94% 29.95 in 7.0 mi SE 17.3 mph 23.0 mph N/A   Overcast
9:53 AM 55.4 °F 51.8 °F 88% 29.95 in 10.0 mi SE 12.7 mph 21.9 mph N/A Rain Light Rain
10:53 AM 57.2 °F 51.8 °F 82% 29.95 in 10.0 mi SSE 9.2 mph - N/A   Overcast
11:53 AM 55.0 °F 51.1 °F 86% 29.95 in 3.0 mi SSE 6.9 mph - 0.05 in Rain Rain
12:53 PM 55.0 °F 52.0 °F 89% 29.95 in 3.0 mi SE 8.1 mph - 0.12 in Rain Light Rain
1:53 PM 55.9 °F 53.1 °F 90% 29.95 in 5.0 mi SSE 5.8 mph - 0.03 in Rain Light Rain
2:53 PM 57.0 °F 53.1 °F 87% 29.94 in 5.0 mi ESE 11.5 mph - 0.02 in   Overcast
3:53 PM 57.0 °F 53.1 °F 87% 29.93 in 10.0 mi ESE 11.5 mph - 0.00 in   Overcast
4:53 PM 57.2 °F 48.2 °F 72% 29.92 in 10.0 mi SE 10.4 mph - N/A   Mostly Cloudy
5:53 PM 57.2 °F 48.2 °F 72% 29.91 in 10.0 mi ESE 12.7 mph - N/A   Mostly Cloudy
6:53 PM 55.4 °F 48.2 °F 77% 29.91 in 10.0 mi SE 10.4 mph - N/A   Mostly Cloudy
7:53 PM 55.4 °F 46.4 °F 72% 29.91 in 10.0 mi SE 9.2 mph - N/A   Scattered Clouds
8:53 PM 54.0 °F 48.0 °F 80% 29.90 in 10.0 mi ESE 6.9 mph - N/A   Clear
9:53 PM 51.1 °F 46.9 °F 86% 29.91 in 10.0 mi South 4.6 mph - N/A   Clear
10:53 PM 48.9 °F 45.0 °F 86% 29.90 in 10.0 mi South 3.5 mph - N/A   Clear
11:53 PM 46.0 °F 44.1 °F 93% 29.91 in 10.0 mi Calm Calm - N/A   Clear